Regional Weather Roundup
Issued by NWS

Home | Current Version | Previous Version | Graphics & Text | Print | Product List | Glossary On
Versions: 1 2 3 4 5 6 7 8 9 10 11 12 13 14 15 16 17 18 19 20 21 22 23 24 25 26 27 28 29 30 31 32 33 34 35 36 37 38 39 40 41 42 43 44 45 46 47 48 49 50
150
ASUS45 KBOU 230810
RWRCO

WEATHER ROUNDUP FOR COLORADO
NATIONAL WEATHER SERVICE DENVER/BOULDER CO
100 AM MST FRI FEB 23 2018

NOTE: "FAIR" INDICATES FEW OR NO CLOUDS BELOW 12000 FEET WITH NO
SIGNIFICANT WEATHER AND/OR OBSTRUCTIONS TO VISIBILITY.

COZ001>005-013-030-031-230900-
...NORTHWEST COLORADO...

CITY           SKY/WX    TMP DP  RH WIND       PRES   REMARKS
CRAIG          CLOUDY    21  16  81 E7        29.96F WCI  12
HAYDEN         LGT SNOW  19  18  93 SE7       29.97S FOG     WCI  10
MEEKER         CLOUDY    18  15  88 CALM      29.95S
RANGELY        FAIR      16  12  86 SE5       29.98S WCI   9
RABBIT EARS PA LGT SNOW   9   5  85 W7        29.84S VSB 3/4 WCI  -3
STEAMBOAT SPGS CLOUDY    19  17  93 E5        29.95S WCI  12
WALDEN         CLOUDY    16  10  79 S3        29.93S
$$

COZ006>008-011-230900-
...WEST CENTRAL VALLEYS...

CITY           SKY/WX    TMP DP  RH WIND       PRES   REMARKS
GRAND JUNCTION MOCLDY    28  25  88 E12       29.99F WCI  18
MONTROSE       CLOUDY    29  17  61 SW8       30.03R WCI  21
EAGLE          CLOUDY    21  19  92 E3        29.99S
RIFLE          LGT SNOW  26  26 100 CALM      30.00S VSB 3/4
DELTA          CLOUDY    33  22  64 NW6       30.02S WCI  27
NUCLA          FAIR      23  12  63 E8        30.03S WCI  14
$$

COZ017>023-064>068-230900-
...SOUTHWEST COLORADO...

CITY           SKY/WX    TMP DP  RH WIND       PRES   REMARKS
DURANGO        FAIR      16  13  88 CALM      30.04R
CORTEZ         CLOUDY    30   7  37 S12       30.04R WCI  20
PAGOSA SPRINGS FAIR       9   7  92 CALM      30.04R
TELLURIDE      LGT SNOW  18  12  76 CALM      29.95S
WOLF CREEK PAS CLOUDY     5   3  92 S21G36    29.93R WCI -16
$$

COZ009-010-012-014-032>034-037-058>063-230900-
...CENTRAL COLORADO...

CITY           SKY/WX    TMP DP  RH WIND       PRES   REMARKS
ASPEN          CLOUDY    16  11  80 CALM      29.91F
BUENA VISTA    CLOUDY    17   6  60 NE3       29.96F
COPPER MTN     LGT SNOW   9   0  66 S14       29.82F WCI  -8
BERTHOUD PASS  FAIR       0 -11  60 SW14G23   29.81S WCI -19
COTTONWOOD PAS CLOUDY    18  12  79 CALM      29.91F
GUNNISON       FAIR      13   5  70 NE5       29.98S WCI   5
GRANBY         LGT SNOW  12   8  85 CALM      29.95R
KREMMLING      LGT SNOW  21  18  86 E3        29.96S
LEADVILLE      CLOUDY     6   0  76 E3        29.88S
MONARCH PASS     N/A      3   0  85 SW25G32   29.94F WCI -20
SALIDA         MOCLDY    22  11  63 W8        30.06S WCI  12
SUNLIGHT       LGT SNOW   9   5  85 SW6       29.91S VSB 1   WCI  -1
WILKERSON PASS MOCLDY     5   0  78 SW10G24   29.88F WCI -10
$$

COZ069>075-230900-
...SAN LUIS VALLEY/SANGRE DE CRISTO MOUNTAINS...

CITY           SKY/WX    TMP DP  RH WIND       PRES   REMARKS
ALAMOSA        FAIR      16   9  74 S9        30.01S WCI   4
DEL NORTE      CLOUDY    17  14  86 CALM      29.99F
LA VETA PASS   CLOUDY    16   5  62 S21G43    30.05S WCI  -2
SAGUACHE       FAIR       7   3  85 NW7       30.01F WCI  -5
$$

COZ035-036-038>040-230900-
...NORTHERN COLORADO FRONT RANGE...

CITY           SKY/WX    TMP DP  RH WIND       PRES   REMARKS
DENVER INTL AP FAIR      19  15  84 CALM      30.02S FOG
AURORA         PTCLDY    14  13  97 S7        30.01F WCI   4
FRONT RANGE AP FAIR      19  17  89 S5        30.03S FOG     WCI  12
ERIE MUNI ARPT FAIR      12  10  90 CALM      30.09F
BOULDER MUN AP FAIR      19  14  79 CALM      30.03S
CENTENNIAL     FAIR      15  13  91 S8        30.00F WCI   4
BROOMFIELD     NOT AVBL
FORT COLLINS   FAIR      13  11  92 N7        30.05S FOG     WCI   3
LONGMONT       FAIR      14  10  83 W5        30.06S WCI   6
$$

COZ041-046-047-076>085-087-088-230900-
...PIKES PEAK/PALMER DIVIDE AND SOUTHERN FOOTHILLS...

CITY           SKY/WX    TMP DP  RH WIND       PRES   REMARKS
COLO. SPRINGS  FAIR      17  13  84 CALM      30.02R FOG
A. F. ACADEMY  FAIR      14  11  87 N8        29.99S WCI   3
SCHRIEVER AFB  NOT AVBL
CHEYENNE MTN   FAIR      21  17  83 S9        29.94R WCI  11
ELLICOTT         N/A    N/A N/A N/A SE3       30.00S
FALCON         FAIR      18  14  84 CALM      30.00S
FORT CARSON    FAIR      21  16  80 CALM      30.02R
LIMON          FAIR      10   8  92 NW3       30.05S FOG
MONUMENT HILL  CLOUDY    16  14  93 CALM      29.99F FOG
CANON CITY     CLEAR     23  19  86 CALM      30.03S
WALSENBURG     NOT AVBL
TRINIDAD       FAIR      19   5  54 NW7       30.03R WCI  10
$$

COZ042>045-048>051-090-091-230900-
...NORTHEAST COLORADO...

CITY           SKY/WX    TMP DP  RH WIND       PRES   REMARKS
GREELEY ARPT   FAIR       8   5  87 NW6       30.07S WCI  -2
AKRON          MOCLDY    20  18  92 W6        30.06S WCI  12
BURLINGTON     FOG       21  19  92 W6        30.10R VSB 1/2 WCI  13
WRAY           FAIR      21  19  93 W7        30.12S WCI  13
YUMA           FAIR      19  18  93 SW5       30.09S WCI  13
STERLING       FAIR      19  18  93 CALM      30.08S
HOLYOKE        FAIR      25  21  86 SW7       30.11R WCI  17
FORT MORGAN    FAIR      18  15  88 CALM      30.07S
$$

COZ086-089-092>099-230900-
...SOUTHEAST COLORADO...

CITY           SKY/WX    TMP DP  RH WIND       PRES   REMARKS
PUEBLO         FAIR      22  17  81 S3        30.06R HAZE
LA JUNTA       FAIR      21  17  84 NE10      30.07S FOG     WCI  10
LAMAR          CLOUDY    23  18  81 N7        30.07F WCI  15
SPRINGFIELD      N/A     23   8  52 SW12      30.06R WCI  12
$$




USA.gov is the U.S. government's official web portal to all federal, state and local government web resources and services.